| time (UTC) | temp F | wind direction | speed MPH | gust MPH | rain 1hr in | rain 24hr in | rain mn in | humidity % | barometer mb |
| 20260901094559 | 51 | 283 | 11.0 | 14.0 | 0.00 | 0.00 | 0.00 | 52 | 1009.4 |
| 20260901093104 | 52 | 251 | 1.0 | 13.0 | 0.00 | 0.00 | 0.00 | 52 | 1009.4 |
| 20260901091602 | 52 | 300 | 9.0 | 16.0 | 0.00 | 0.00 | 0.00 | 51 | 1009.4 |
| 20260901090050 | 52 | 261 | 9.0 | 14.0 | 0.00 | 0.00 | 0.00 | 51 | 1009.5 |
| 20260901084550 | 52 | 54 | 3.0 | 15.0 | 0.00 | 0.00 | 0.00 | 51 | 1009.8 |
| 20260901083047 | 53 | 179 | 7.0 | 12.0 | 0.00 | 0.00 | 0.00 | 50 | 1009.6 |
| 20260901081546 | 53 | 257 | 10.0 | 15.0 | 0.00 | 0.00 | 0.00 | 49 | 1009.8 |
| 20260901080043 | 53 | 258 | 11.0 | 18.0 | 0.00 | 0.00 | 0.00 | 49 | 1010.1 |
| 20260901074540 | 53 | 271 | 14.0 | 19.0 | 0.00 | 0.00 | 0.00 | 49 | 1010.1 |
| 20260901073045 | 54 | 274 | 14.0 | 19.0 | 0.00 | 0.00 | 0.00 | 48 | 1010.5 |
| 20260901071535 | 54 | 281 | 15.0 | 19.0 | 0.00 | 0.00 | 0.00 | 48 | 1010.5 |
| 20260901070034 | 54 | 271 | 14.0 | 17.0 | 0.00 | 0.00 | 0.00 | 48 | 1010.4 |
| 20260901064536 | 55 | 277 | 13.0 | 16.0 | 0.00 | 0.00 | 0.00 | 47 | 1010.5 |
| 20260901063034 | 55 | 287 | 13.0 | 18.0 | 0.00 | 0.00 | 0.00 | 47 | 1010.4 |
| 20260901061526 | 55 | 296 | 12.0 | 17.0 | 0.00 | 0.00 | 0.00 | 47 | 1010.4 |
| 20260901060022 | 55 | 304 | 9.0 | 14.0 | 0.00 | 0.00 | 0.00 | 47 | 1010.5 |
| 20260901054522 | 56 | 292 | 10.0 | 15.0 | 0.00 | 0.00 | 0.00 | 46 | 1010.6 |
| 20260901053021 | 56 | 294 | 12.0 | 16.0 | 0.00 | 0.00 | 0.00 | 45 | 1010.6 |
| 20260901051520 | 57 | 309 | 10.0 | 15.0 | 0.00 | 0.00 | 0.00 | 44 | 1010.7 |
| 20260901050020 | 58 | 298 | 11.0 | 14.0 | 0.00 | 0.00 | 0.00 | 43 | 1010.7 |
| 20260901044519 | 58 | 290 | 11.0 | 14.0 | 0.00 | 0.00 | 0.00 | 41 | 1010.7 |
| 20260901043020 | 58 | 277 | 10.0 | 12.0 | 0.00 | 0.00 | 0.00 | 41 | 1010.7 |
| 20260901041517 | 59 | 289 | 7.0 | 11.0 | 0.00 | 0.00 | 0.00 | 41 | 1010.8 |
| 20260901040018 | 60 | 297 | 6.0 | 10.0 | 0.00 | 0.00 | 0.00 | 40 | 1010.8 |
| 20260901034516 | 59 | 290 | 6.0 | 7.0 | 0.00 | 0.00 | 0.00 | 39 | 1010.9 |
| 20260901033015 | 62 | 350 | 3.0 | 5.0 | 0.00 | 0.00 | 0.00 | 35 | 1011.1 |
| 20260901031517 | 62 | 27 | 2.0 | 5.0 | 0.00 | 0.00 | 0.00 | 35 | 1011.0 |
| 20260901030014 | 64 | 350 | 4.0 | 5.0 | 0.00 | 0.00 | 0.00 | 34 | 1010.9 |
| 20260901024525 | 65 | 54 | 1.0 | 3.0 | 0.00 | 0.00 | 0.00 | 32 | 1010.7 |
| 20260901023012 | 65 | 98 | 1.0 | 4.0 | 0.00 | 0.00 | 0.00 | 32 | 1010.6 |
| 20260901021515 | 66 | 325 | 2.0 | 4.0 | 0.00 | 0.00 | 0.00 | 31 | 1010.4 |
| 20260901020012 | 68 | 149 | 1.0 | 6.0 | 0.00 | 0.00 | 0.00 | 30 | 1010.5 |
| 20260901014513 | 68 | 225 | 1.0 | 5.0 | 0.00 | 0.00 | 0.00 | 30 | 1010.3 |
| 20260901013010 | 70 | 281 | 0.0 | 3.0 | 0.00 | 0.00 | 0.00 | 30 | 1010.4 |
| 20260901011509 | 70 | 142 | 3.0 | 8.0 | 0.00 | 0.00 | 0.00 | 28 | 1010.4 |
| 20260901010012 | 71 | 146 | 6.0 | 11.0 | 0.00 | 0.00 | 0.00 | 27 | 1010.5 |
| 20260901004522 | 71 | 147 | 4.0 | 12.0 | 0.00 | 0.00 | 0.00 | 28 | 1010.5 |
| 20260901003007 | 72 | 168 | 5.0 | 16.0 | 0.00 | 0.00 | 0.00 | 27 | 1010.6 |
| 20260901001518 | 72 | 148 | 7.0 | 12.0 | 0.00 | 0.00 | 0.00 | 26 | 1010.7 |
| 20260901000012 | 73 | 135 | 5.0 | 12.0 | 0.00 | 0.00 | 0.00 | 25 | 1010.9 |
| 20260831234502 | 72 | 121 | 6.0 | 12.0 | 0.00 | 0.00 | 0.00 | 26 | 1011.1 |
| 20260831233101 | 73 | 141 | 5.0 | 12.0 | 0.00 | 0.00 | 0.00 | 25 | 1011.3 |
| 20260831231600 | 73 | 110 | 2.0 | 9.0 | 0.00 | 0.00 | 0.00 | 24 | 1011.6 |
| 20260831230058 | 72 | 92 | 5.0 | 12.0 | 0.00 | 0.00 | 0.00 | 25 | 1011.8 |
| 20260831224553 | 72 | 113 | 7.0 | 13.0 | 0.00 | 0.00 | 0.00 | 24 | 1011.9 |
| 20260831223053 | 72 | 154 | 5.0 | 17.0 | 0.00 | 0.00 | 0.00 | 24 | 1012.0 |
| 20260831221549 | 72 | 133 | 9.0 | 13.0 | 0.00 | 0.00 | 0.00 | 26 | 1012.2 |
| 20260831220047 | 71 | 117 | 4.0 | 16.0 | 0.00 | 0.00 | 0.00 | 26 | 1012.4 |
| 20260831214612 | 70 | 172 | 7.0 | 18.0 | 0.00 | 0.00 | 0.00 | 26 | 1012.4 |
| 20260831213043 | 70 | 133 | 8.0 | 19.0 | 0.00 | 0.00 | 0.00 | 28 | 1012.7 |
| 20260831211542 | 70 | 100 | 8.0 | 17.0 | 0.00 | 0.00 | 0.00 | 29 | 1012.8 |
| 20260831210039 | 70 | 138 | 12.0 | 19.0 | 0.00 | 0.00 | 0.00 | 27 | 1013.1 |
| 20260831204537 | 69 | 130 | 10.0 | 17.0 | 0.00 | 0.00 | 0.00 | 30 | 1013.4 |
| 20260831203034 | 68 | 145 | 9.0 | 18.0 | 0.00 | 0.00 | 0.00 | 29 | 1013.4 |
| 20260831201536 | 68 | 97 | 10.0 | 17.0 | 0.00 | 0.00 | 0.00 | 29 | 1013.6 |
| 20260831200040 | 67 | 143 | 9.0 | 18.0 | 0.00 | 0.00 | 0.00 | 31 | 1013.7 |
| 20260831194527 | 67 | 134 | 6.0 | 14.0 | 0.00 | 0.00 | 0.00 | 29 | 1013.9 |
| 20260831193024 | 66 | 137 | 10.0 | 17.0 | 0.00 | 0.00 | 0.00 | 31 | 1014.1 |
| 20260831191524 | 66 | 158 | 7.0 | 13.0 | 0.00 | 0.00 | 0.00 | 30 | 1014.2 |
| 20260831190027 | 65 | 120 | 10.0 | 17.0 | 0.00 | 0.00 | 0.00 | 30 | 1014.4 |
| 20260831184520 | 64 | 138 | 8.0 | 15.0 | 0.00 | 0.00 | 0.00 | 32 | 1014.7 |
| 20260831183014 | 64 | 130 | 10.0 | 17.0 | 0.00 | 0.00 | 0.00 | 31 | 1015.1 |
| 20260831181512 | 63 | 144 | 4.0 | 12.0 | 0.00 | 0.00 | 0.00 | 34 | 1015.0 |
| 20260831180008 | 63 | 135 | 6.0 | 11.0 | 0.00 | 0.00 | 0.00 | 32 | 1015.3 |
| 20260831174506 | 61 | 148 | 6.0 | 10.0 | 0.00 | 0.00 | 0.00 | 36 | 1015.5 |
| 20260831173004 | 60 | 84 | 6.0 | 10.0 | 0.00 | 0.00 | 0.00 | 35 | 1015.7 |
| 20260831171600 | 59 | 202 | 4.0 | 8.0 | 0.00 | 0.00 | 0.00 | 36 | 1015.7 |
| 20260831170100 | 59 | 75 | 3.0 | 8.0 | 0.00 | 0.00 | 0.00 | 37 | 1015.7 |
| 20260831164605 | 58 | 127 | 4.0 | 7.0 | 0.00 | 0.00 | 0.00 | 41 | 1015.7 |
| 20260831163053 | 57 | 130 | 3.0 | 7.0 | 0.00 | 0.00 | 0.00 | 47 | 1015.7 |
| 20260831161550 | 56 | 108 | 4.0 | 8.0 | 0.00 | 0.00 | 0.00 | 43 | 1015.7 |
| 20260831160049 | 56 | 111 | 3.0 | 7.0 | 0.00 | 0.00 | 0.00 | 46 | 1015.8 |
| 20260831154554 | 55 | 135 | 3.0 | 6.0 | 0.00 | 0.00 | 0.00 | 47 | 1016.0 |
| 20260831153043 | 53 | 179 | 0.0 | 3.0 | 0.00 | 0.00 | 0.00 | 47 | 1016.1 |
| 20260831151539 | 51 | 104 | 1.0 | 3.0 | 0.00 | 0.00 | 0.00 | 55 | 1016.2 |
| 20260831150036 | 48 | 192 | 0.0 | 3.0 | 0.00 | 0.00 | 0.00 | 62 | 1016.2 |
| 20260831144534 | 47 | 148 | 1.0 | 7.0 | 0.00 | 0.00 | 0.00 | 63 | 1016.1 |
| 20260831143034 | 47 | 250 | 3.0 | 8.0 | 0.00 | 0.00 | 0.00 | 56 | 1016.1 |
| 20260831141534 | 45 | 255 | 6.0 | 15.0 | 0.00 | 0.00 | 0.00 | 58 | 1015.9 |
| 20260831140039 | 44 | 265 | 10.0 | 14.0 | 0.00 | 0.00 | 0.00 | 58 | 1015.9 |
| 20260831134531 | 44 | 252 | 6.0 | 11.0 | 0.00 | 0.00 | 0.00 | 58 | 1016.0 |
| 20260831133034 | 43 | 277 | 8.0 | 13.0 | 0.00 | 0.00 | 0.00 | 61 | 1016.0 |
| 20260831131539 | 41 | 155 | 1.0 | 12.0 | 0.00 | 0.00 | 0.00 | 65 | 1015.8 |
| 20260831130036 | 41 | 292 | 9.0 | 16.0 | 0.00 | 0.00 | 0.00 | 65 | 1015.7 |
| 20260831124526 | 41 | 292 | 12.0 | 18.0 | 0.00 | 0.00 | 0.00 | 64 | 1015.4 |
| 20260831123022 | 41 | 289 | 12.0 | 18.0 | 0.00 | 0.00 | 0.00 | 64 | 1015.3 |
| 20260831121519 | 42 | 283 | 2.0 | 4.0 | 0.00 | 0.00 | 0.00 | 62 | 1015.4 |
| 20260831120021 | 42 | 308 | 2.0 | 10.0 | 0.00 | 0.00 | 0.00 | 62 | 1015.3 |
| 20260831114515 | 43 | 246 | 6.0 | 16.0 | 0.00 | 0.00 | 0.00 | 62 | 1015.2 |
| 20260831113014 | 43 | 289 | 12.0 | 16.0 | 0.00 | 0.00 | 0.00 | 62 | 1014.9 |
| 20260831111515 | 43 | 297 | 12.0 | 16.0 | 0.00 | 0.00 | 0.00 | 63 | 1014.8 |
| 20260831110009 | 43 | 302 | 11.0 | 14.0 | 0.00 | 0.00 | 0.00 | 63 | 1015.0 |
| 20260831104508 | 43 | 296 | 13.0 | 15.0 | 0.00 | 0.00 | 0.00 | 63 | 1014.9 |
| 20260831103004 | 44 | 300 | 11.0 | 15.0 | 0.00 | 0.00 | 0.00 | 63 | 1014.9 |
| 20260831101502 | 44 | 289 | 10.0 | 15.0 | 0.00 | 0.00 | 0.00 | 62 | 1014.7 |
| 20260831100059 | 45 | 298 | 12.0 | 16.0 | 0.00 | 0.00 | 0.00 | 61 | 1014.7 |